EW3302 Weather Reports


Display with metric or nautical units.
time (UTC)temp
F
wind
direction
speed
MPH
gust
MPH
rain 1hr
in
rain 24hr
in
rain mn
in
humidity
%
barometer
mb
20260901000516 54 270 2.0 3.0 0.00 0.07 0.00 96 1005.6
20260831235536 54 248 2.0 4.0 0.00 0.07 0.00 96 1005.6
20260831234556 54 315 1.0 3.0 0.00 0.07 0.00 95 1005.5
20260831233515 53 270 1.0 4.0 0.00 0.07 0.00 95 1005.5
20260831232516 53 270 1.0 3.0 0.00 0.07 0.00 95 1005.4
20260831231516 52 293 2.0 3.0 0.00 0.07 0.00 95 1005.3
20260831230516 52 0.0 2.0 0.00 0.07 0.00 94 1005.3
20260831225515 52 0.0 1.0 0.00 0.07 0.00 94 1005.3
20260831224516 52 0.0 1.0 0.00 0.07 0.00 94 1005.3
20260831223515 52 293 1.0 2.0 0.00 0.07 0.00 94 1005.2
20260831222515 53 293 1.0 2.0 0.00 0.07 0.00 94 1005.3
20260831221535 52 293 2.0 3.0 0.00 0.07 0.00 93 1005.4
20260831220515 53 0.0 2.0 0.00 0.07 0.00 93 1005.3
20260831215557 53 248 1.0 2.0 0.00 0.07 0.07 92 1005.4
20260831214537 53 0.0 1.0 0.00 0.07 0.07 92 1005.4
20260831213517 54 0.0 1.0 0.00 0.07 0.07 92 1005.4
20260831212517 54 248 1.0 3.0 0.00 0.07 0.07 92 1005.4
20260831211517 54 0.0 0.0 0.00 0.07 0.07 91 1005.3
20260831210517 55 248 1.0 3.0 0.00 0.07 0.07 91 1005.2
20260831205517 55 203 1.0 3.0 0.00 0.07 0.07 91 1005.2
20260831204517 55 203 1.0 2.0 0.00 0.07 0.07 90 1005.0
20260831203517 56 0.0 0.0 0.00 0.07 0.07 89 1005.1
20260831202537 56 0.0 0.0 0.00 0.07 0.07 88 1005.0
20260831201517 57 0.0 1.0 0.00 0.07 0.07 88 1005.0
20260831200517 58 0.0 1.0 0.00 0.07 0.07 87 1005.0
20260831195517 58 203 2.0 4.0 0.00 0.07 0.07 87 1005.0
20260831194517 58 203 2.0 5.0 0.00 0.07 0.07 87 1005.1
20260831193517 59 158 1.0 4.0 0.00 0.07 0.07 86 1005.1
20260831192517 59 180 2.0 5.0 0.00 0.07 0.07 86 1005.0
20260831191517 59 180 3.0 5.0 0.00 0.07 0.07 86 1005.0
20260831190517 59 180 4.0 6.0 0.00 0.07 0.07 85 1005.0
20260831185517 59 180 4.0 6.0 0.00 0.07 0.07 85 1005.0
20260831184517 60 180 4.0 7.0 0.00 0.07 0.07 85 1004.9
20260831183517 60 158 3.0 8.0 0.00 0.07 0.07 84 1004.9
20260831182517 60 180 3.0 6.0 0.00 0.07 0.07 83 1004.8
20260831181517 60 180 3.0 7.0 0.00 0.07 0.07 82 1004.7
20260831180517 61 180 2.0 4.0 0.00 0.07 0.07 81 1004.7
20260831175517 61 180 4.0 8.0 0.00 0.07 0.07 80 1004.5
20260831174537 62 180 4.0 9.0 0.00 0.07 0.07 79 1004.5
20260831173517 62 203 4.0 7.0 0.00 0.07 0.07 79 1004.5
20260831172517 63 203 5.0 8.0 0.00 0.07 0.07 78 1004.5
20260831171537 63 203 5.0 10.0 0.00 0.07 0.07 78 1004.4
20260831170557 63 180 5.0 11.0 0.00 0.07 0.07 78 1004.2
20260831165517 64 180 4.0 9.0 0.00 0.07 0.07 78 1004.2
20260831164537 64 203 5.0 9.0 0.00 0.07 0.07 77 1004.1
20260831163517 64 203 7.0 11.0 0.00 0.07 0.07 76 1003.9
20260831162517 65 180 6.0 10.0 0.00 0.07 0.07 76 1004.0
20260831161516 65 180 6.0 12.0 0.00 0.07 0.07 75 1003.9
20260831160516 65 180 7.0 13.0 0.00 0.07 0.07 74 1003.9
20260831155557 66 180 6.0 13.0 0.00 0.07 0.07 74 1003.8
20260831154556 66 180 4.0 8.0 0.00 0.07 0.07 76 1003.8
20260831153517 66 180 5.0 10.0 0.00 0.07 0.07 75 1003.8
20260831152517 66 180 8.0 16.0 0.00 0.07 0.07 74 1003.7
20260831151536 66 180 5.0 12.0 0.00 0.07 0.07 75 1003.8
20260831150536 67 180 7.0 15.0 0.00 0.07 0.07 74 1003.8
20260831145516 66 158 6.0 11.0 0.00 0.07 0.07 75 1003.7
20260831144516 66 158 4.0 7.0 0.00 0.07 0.07 75 1003.8
20260831143516 67 180 5.0 10.0 0.00 0.07 0.07 74 1003.8
20260831142516 68 135 5.0 9.0 0.00 0.07 0.07 73 1003.8
20260831141516 67 180 7.0 12.0 0.00 0.07 0.07 75 1003.9
20260831140516 67 135 5.0 10.0 0.00 0.07 0.07 72 1003.9
20260831135516 67 203 4.0 8.0 0.00 0.07 0.07 74 1003.9
20260831134536 67 180 5.0 12.0 0.00 0.07 0.07 72 1003.9
20260831133517 67 180 5.0 9.0 0.00 0.07 0.07 70 1003.9
20260831132516 68 180 2.0 5.0 0.00 0.07 0.07 69 1003.8
20260831131516 67 248 4.0 9.0 0.00 0.07 0.07 68 1003.7
20260831130516 67 248 3.0 13.0 0.00 0.07 0.07 69 1003.6
20260831125517 67 248 4.0 8.0 0.00 0.07 0.07 66 1003.6
20260831124517 67 248 2.0 10.0 0.00 0.07 0.07 67 1003.6
20260831123536 67 270 3.0 6.0 0.00 0.07 0.07 69 1003.6
20260831122516 67 203 4.0 8.0 0.00 0.07 0.07 70 1003.5
20260831121516 66 225 3.0 5.0 0.00 0.07 0.07 73 1003.6
20260831120536 65 203 5.0 9.0 0.00 0.07 0.07 74 1003.6
20260831115517 65 203 4.0 7.0 0.00 0.07 0.07 76 1003.7
20260831114516 64 248 3.0 7.0 0.00 0.07 0.07 76 1003.7
20260831113516 64 248 4.0 8.0 0.00 0.07 0.07 76 1003.7
20260831112516 65 248 4.0 9.0 0.00 0.07 0.07 76 1003.7
20260831111516 65 203 5.0 10.0 0.00 0.07 0.07 77 1003.6
20260831110516 65 203 5.0 9.0 0.00 0.07 0.07 77 1003.5
20260831105516 65 180 4.0 9.0 0.00 0.07 0.07 77 1003.5
20260831104516 64 180 3.0 7.0 0.00 0.07 0.07 80 1003.5
20260831103516 64 135 3.0 6.0 0.00 0.07 0.07 80 1003.5
20260831102516 64 180 5.0 9.0 0.00 0.07 0.07 80 1003.5
20260831101516 64 203 5.0 8.0 0.00 0.07 0.07 80 1003.5
20260831100516 63 203 3.0 6.0 0.00 0.07 0.07 83 1003.5
20260831095536 63 158 3.0 7.0 0.00 0.07 0.07 83 1003.4
20260831094516 63 180 2.0 4.0 0.00 0.07 0.07 83 1003.4
20260831093516 63 135 3.0 7.0 0.00 0.07 0.07 82 1003.3
20260831092516 63 225 4.0 7.0 0.00 0.07 0.07 83 1003.3
20260831091516 62 203 2.0 4.0 0.00 0.07 0.07 84 1003.2
20260831090516 62 225 1.0 4.0 0.00 0.07 0.07 84 1003.3
20260831085516 62 203 2.0 4.0 0.00 0.07 0.07 85 1003.3
20260831084516 61 248 2.0 4.0 0.00 0.07 0.07 85 1003.3
20260831083516 61 203 3.0 7.0 0.00 0.07 0.07 86 1003.3
20260831082516 61 203 4.0 6.0 0.00 0.07 0.07 85 1003.2
20260831081516 61 203 5.0 9.0 0.00 0.07 0.07 84 1003.3
20260831080536 61 203 4.0 8.0 0.00 0.07 0.07 85 1003.2
20260831075516 61 203 5.0 9.0 0.00 0.07 0.07 86 1003.1
20260831074517 61 203 3.0 9.0 0.00 0.07 0.07 87 1003.1
20260831073516 61 203 4.0 9.0 0.00 0.07 0.07 89 1003.0
20260831072516 60 180 4.0 8.0 0.00 0.07 0.07 92 1002.9
20260831071516 59 203 3.0 6.0 0.00 0.07 0.07 92 1002.8
20260831070516 60 225 1.0 3.0 0.00 0.07 0.07 95 1002.7
20260831065516 60 225 3.0 5.0 0.00 0.07 0.07 95 1002.6
20260831064516 60 270 1.0 3.0 0.00 0.07 0.07 96 1002.6
20260831063536 60 225 1.0 3.0 0.00 0.07 0.07 96 1002.6
20260831062516 60 135 1.0 2.0 0.00 0.07 0.07 97 1002.6
20260831061516 59 0.0 1.0 0.00 0.07 0.07 97 1002.6
20260831060516 59 180 1.0 2.0 0.00 0.07 0.07 97 1002.5
20260831055516 59 0.0 1.0 0.00 0.07 0.07 97 1002.4
20260831054536 59 0.0 1.0 0.00 0.07 0.07 97 1002.4
20260831053516 58 0.0 0.0 0.00 0.07 0.07 96 1002.4
20260831052516 58 0.0 1.0 0.00 0.07 0.07 96 1002.4
20260831051516 58 0.0 1.0 0.00 0.07 0.07 96 1002.3
20260831050516 58 0.0 0.0 0.01 0.07 0.07 96 1002.3
20260831045516 58 0.0 1.0 0.01 0.07 0.07 96 1002.3
20260831044516 58 180 1.0 2.0 0.01 0.07 0.07 96 1002.3
20260831043516 57 0.0 1.0 0.01 0.07 0.07 96 1002.2
20260831042516 57 0.0 1.0 0.01 0.07 0.07 96 1002.2
20260831041516 57 0.0 0.0 0.01 0.07 0.07 96 1002.3
20260831040516 57 0.0 0.0 0.00 0.06 0.06 96 1002.2
20260831035536 57 0.0 1.0 0.00 0.06 0.06 96 1002.1
20260831034516 57 0.0 0.0 0.00 0.06 0.06 96 1002.1
20260831033516 57 0.0 0.0 0.00 0.06 0.06 96 1002.0
20260831032516 57 0.0 1.0 0.01 0.06 0.06 96 1001.9
20260831031516 57 0.0 0.0 0.02 0.06 0.06 96 1002.0
20260831030516 57 0.0 0.0 0.02 0.06 0.06 96 1002.0
20260831025536 57 0.0 0.0 0.02 0.06 0.06 96 1002.0
20260831024516 57 0.0 1.0 0.03 0.06 0.06 96 1002.0
20260831023516 57 0.0 0.0 0.04 0.06 0.06 96 1002.0
20260831022516 57 0.0 0.0 0.04 0.06 0.06 96 1002.0
20260831021536 57 0.0 1.0 0.03 0.05 0.05 96 1002.0
20260831020536 57 0.0 2.0 0.02 0.04 0.04 96 1002.1
20260831015516 57 0.0 2.0 0.02 0.04 0.04 96 1002.1
20260831014516 57 180 1.0 2.0 0.02 0.03 0.03 95 1002.0
20260831013516 57 0.0 0.0 0.02 0.03 0.02 96 1002.0
20260831012516 57 0.0 0.0 0.02 0.02 0.02 95 1002.0
20260831011516 57 0.0 0.0 0.02 0.02 0.02 96 1002.1
20260831010516 57 0.0 0.0 0.02 0.02 0.02 95 1002.1
20260831005516 57 0.0 1.0 0.02 0.02 0.02 95 1002.1
20260831004516 57 0.0 0.0 0.01 0.02 0.01 95 1002.2
20260831003516 57 0.0 0.0 0.01 0.02 0.01 95 1002.2
20260831002516 57 180 1.0 2.0 0.00 0.01 0.00 95 1002.2
20260831001516 57 180 1.0 2.0 0.00 0.01 0.00 95 1002.1